Location: Vancouver
(49.2500°N, 123.1330°W)
Time: 23:27:55
(UTC-07:00)

Oscar 11 - Visible Passes

Search period start: 29 May 2015 00:00
Search period end: 08 June 2015 00:00
Orbit: 615 x 628 km, 97.8° (Epoch: 29 May)

Date Brightness Start Highest point End Pass type
(mag) Time Alt. Az. Time Alt. Az. Time Alt. Az.
29 May 7.8 22:17:03 10° S 22:21:18 52° W 22:25:33 10° NNW visible
30 May 8.4 22:35:12 10° SSW 22:39:12 35° W 22:43:11 10° NNW visible
31 May 9.0 22:53:35 10° SSW 22:57:09 24° W 23:00:40 10° NW visible
01 Jun 9.5 23:12:18 10° SW 23:15:09 17° W 23:17:52 10° NW visible
02 Jun 7.1 21:51:59 10° SSE 21:56:19 88° E 22:00:40 10° NNW visible
02 Jun 9.8 23:31:51 10° WSW 23:33:13 11° W 23:34:23 10° WNW visible
03 Jun 7.5 22:09:51 10° S 22:14:08 62° W 22:18:26 10° NNW visible
04 Jun 8.2 22:27:54 10° S 22:32:00 41° W 22:36:06 10° NNW visible
05 Jun 8.8 22:46:11 10° SSW 22:49:56 28° W 22:53:38 10° NW visible
06 Jun 9.4 23:04:45 10° SW 23:07:55 19° W 23:10:59 10° NW visible
07 Jun 9.7 23:23:50 10° WSW 23:25:57 13° W 23:27:53 10° WNW visible
